User: anonymous   Login
Location: Unspecified
(0.0000°N, 0.0000°E)
Time: 12:37:47
(UTC+00:00)
Language:

GALILEO 9 (205) - Orbit

View from above orbital plane
View from above orbital plane
View from above satellite
View from above satellite

Ground track
Ground track

The orbit data is extracted from the following two-line orbital elements,

1 40889U 15045A   17086.48186085 -.00000009 +00000-0 +00000-0 0  9996
2 40889 057.0712 314.3519 0004198 018.3083 341.7688 01.70474493009582
Epoch (UTC): 27 March 2017 11:33:52
Eccentricity: 0.0004198
inclination: 57.0712°
perigee height: 23209 km
apogee height: 23234 km
right ascension of ascending node: 314.3519°
argument of perigee: 18.3083°
revolutions per day: 1.70474493
mean anomaly at epoch: 341.7688°
orbit number at epoch: 958

The dashed part of the orbit path shows where the satellite is in the earth's shadow,  

DLR